This is the latest recevied weather packets stored in our database for station/object N7ZEF. If no packets are shown the sender has not sent any weather packets the latest 10 day(s).
| Time | Temp. | Humidity | Pressure | Rain* | Wind** | Luminosity | Snow |
|---|---|---|---|---|---|---|---|
| 1777430094 | 7.22° C | 42% | 1020.7 hPa | 0 mm | - | - | - |
| 1777429493 | 7.22° C | 42% | 1020.6 hPa | 0 mm | - | - | - |
| 1777428891 | 7.78° C | 39% | 1020.4 hPa | 0 mm | - | - | - |
| 1777428290 | 7.78° C | 38% | 1020.3 hPa | 0 mm | - | - | - |
| 1777427689 | 7.78° C | 38% | 1020.2 hPa | 0 mm | - | - | - |
| 1777427087 | 8.33° C | 38% | 1020.2 hPa | 0 mm | - | - | - |
| 1777426486 | 8.33° C | 36% | 1020.1 hPa | 0 mm | - | - | - |
| 1777425884 | 8.33° C | 35% | 1019.9 hPa | 0 mm | - | - | - |
| 1777425283 | 8.33° C | 35% | 1019.9 hPa | 0 mm | - | - | - |
| 1777424682 | 8.33° C | 34% | 1019.8 hPa | 0 mm | - | - | - |
| 1777424080 | 8.33° C | 34% | 1019.9 hPa | 0 mm | - | - | - |
| 1777423479 | 8.33° C | 31% | 1019.8 hPa | 0 mm | - | - | - |
| 1777422878 | 8.89° C | 33% | 1019.8 hPa | 0 mm | - | - | - |
| 1777422276 | 8.89° C | 31% | 1019.7 hPa | 0 mm | - | - | - |
| 1777421675 | 8.89° C | 33% | 1019.8 hPa | 0 mm | - | - | - |
| 1777421073 | 9.44° C | 32% | 1019.7 hPa | 0 mm | - | - | - |
| 1777420472 | 8.89° C | 35% | 1019.7 hPa | 0 mm | - | - | - |
| 1777419871 | 8.33° C | 34% | 1019.8 hPa | 0 mm | - | - | - |
| 1777419269 | 8.33° C | 34% | 1019.7 hPa | 0 mm | - | - | - |
| 1777418668 | 8.33° C | 33% | 1019.6 hPa | 0 mm | - | - | - |
| 1777418067 | 8.89° C | 37% | 1019.6 hPa | 0 mm | - | - | - |
| 1777417465 | 8.89° C | 37% | 1019.6 hPa | 0 mm | - | - | - |
| 1777416864 | 8.33° C | 39% | 1019.6 hPa | 0 mm | - | - | - |
| 1777416262 | 8.33° C | 38% | 1019.6 hPa | 0 mm | - | - | - |
| 1777415661 | 8.89° C | 39% | 1019.6 hPa | 0 mm | - | - | - |
* Rain latest hour (hover to see other rain measurements)
** Current wind speed in m/s (hover to see current wind gust speed)